• In Germany
  • List of Countries
  • For 7 days
  • Water Temperature
  • Satellite Maps
  • Weather Map
  • Weather Widgets
  • user-avatar
    Login

    Hourly Weather Santiago del Estero

    Today, 24 April, Tuesday

    Time Temperature Precipitation Wind Pressure Humidity
    00:00 +24°C° 2.3 mm 3 mps 745 mmHg 88%
    01:00 +24°C° 2.3 mm 3 mps 745 mmHg 91%
    02:00 +23°C° 0 mm 2 mps 744 mmHg 94%
    03:00 +23°C° 1.7 mm 2 mps 744 mmHg 94%
    04:00 +23°C° 1.7 mm 2 mps 744 mmHg 95%
    05:00 +23°C° 1.7 mm 1 mps 744 mmHg 95%
    06:00 +24°C° 0.1 mm 2 mps 744 mmHg 94%
    07:00 +24°C° 0.1 mm 2 mps 744 mmHg 93%
    08:00 +22°C° 0 mm 3 mps 745 mmHg 91%
    09:00 +24°C° 0.1 mm 3 mps 745 mmHg 89%
    10:00 +24°C° 0.1 mm 3 mps 745 mmHg 87%
    11:00 +25°C° 0.1 mm 3 mps 745 mmHg 85%
    12:00 +26°C° 0 mm 3 mps 744 mmHg 82%
    13:00 +26°C° 0 mm 3 mps 743 mmHg 80%
    14:00 +27°C° 0 mm 3 mps 743 mmHg 78%
    15:00 +27°C° 0 mm 2 mps 743 mmHg 76%
    16:00 +28°C° 0 mm 2 mps 742 mmHg 74%
    17:00 +28°C° 0 mm 1 mps 742 mmHg 73%
    18:00 +27°C° 0 mm 1 mps 742 mmHg 77%
    19:00 +26°C° 0 mm 1 mps 743 mmHg 81%
    20:00 +26°C° 0 mm 1 mps 743 mmHg 85%
    21:00 +26°C° 0.1 mm 1 mps 743 mmHg 84%
    22:00 +26°C° 0.1 mm 1 mps 743 mmHg 82%
    23:00 +26°C° 0.1 mm 2 mps 743 mmHg 81%

    Tomorrow, 25 April, Wednesday

    Time Temperature Precipitation Wind Pressure Humidity
    00:00 +26°C° 0.1 mm 2 mps 743 mmHg 81%
    01:00 +26°C° 0.1 mm 1 mps 743 mmHg 80%
    02:00 +26°C° 0.1 mm 1 mps 743 mmHg 80%
    03:00 +26°C° 0 mm 2 mps 743 mmHg 79%
    04:00 +26°C° 0 mm 2 mps 743 mmHg 78%
    05:00 +26°C° 0 mm 2 mps 743 mmHg 78%
    06:00 +26°C° 0 mm 2 mps 743 mmHg 77%
    07:00 +26°C° 0 mm 2 mps 744 mmHg 76%
    08:00 +26°C° 0 mm 2 mps 744 mmHg 75%
    09:00 +26°C° 0 mm 2 mps 744 mmHg 71%
    10:00 +27°C° 0 mm 3 mps 744 mmHg 67%
    11:00 +28°C° 0 mm 3 mps 745 mmHg 64%
    12:00 +30°C° 0 mm 3 mps 744 mmHg 58%
    13:00 +32°C° 0 mm 4 mps 743 mmHg 51%
    14:00 +34°C° 0 mm 4 mps 742 mmHg 45%
    15:00 +33°C° 0 mm 4 mps 742 mmHg 46%
    16:00 +33°C° 0 mm 3 mps 742 mmHg 47%
    17:00 +31°C° 0 mm 3 mps 742 mmHg 48%
    18:00 +30°C° 0 mm 3 mps 742 mmHg 51%
    19:00 +29°C° 0 mm 3 mps 742 mmHg 53%
    20:00 +28°C° 0 mm 3 mps 742 mmHg 56%
    21:00 +28°C° 0 mm 3 mps 742 mmHg 56%
    22:00 +28°C° 0 mm 3 mps 742 mmHg 56%
    23:00 +28°C° 0 mm 3 mps 742 mmHg 55%

    Day after tomorrow, 26 April, Thursday

    Time Temperature Precipitation Wind Pressure Humidity
    00:00 +28°C° 0 mm 3 mps 742 mmHg 55%
    01:00 +27°C° 0 mm 3 mps 741 mmHg 56%
    02:00 +27°C° 0 mm 3 mps 741 mmHg 56%
    03:00 +27°C° 0 mm 3 mps 741 mmHg 56%
    04:00 +27°C° 0 mm 3 mps 740 mmHg 56%
    05:00 +26°C° 0 mm 4 mps 740 mmHg 57%
    06:00 +27°C° 0 mm 4 mps 740 mmHg 56%
    07:00 +27°C° 0 mm 4 mps 740 mmHg 55%
    08:00 +27°C° 0 mm 5 mps 740 mmHg 54%
    09:00 +29°C° 0 mm 6 mps 740 mmHg 49%
    10:00 +30°C° 0 mm 7 mps 740 mmHg 44%
    11:00 +33°C° 0 mm 8 mps 740 mmHg 40%
    12:00 +34°C° 0 mm 8 mps 739 mmHg 39%
    13:00 +34°C° 0 mm 8 mps 738 mmHg 37%
    14:00 +35°C° 0 mm 8 mps 737 mmHg 36%
    15:00 +34°C° 0 mm 6 mps 737 mmHg 38%
    16:00 +34°C° 0 mm 5 mps 736 mmHg 41%
    17:00 +33°C° 0 mm 4 mps 736 mmHg 44%
    18:00 +31°C° 0 mm 3 mps 736 mmHg 46%
    19:00 +30°C° 0 mm 3 mps 736 mmHg 47%
    20:00 +29°C° 0 mm 3 mps 736 mmHg 49%
    21:00 +29°C° 0 mm 3 mps 737 mmHg 49%
    22:00 +29°C° 0 mm 3 mps 737 mmHg 49%
    23:00 +29°C° 0 mm 3 mps 737 mmHg 49%

    27 April, Friday

    Time Temperature Precipitation Wind Pressure Humidity
    00:00 +28°C° 0 mm 4 mps 736 mmHg 50%
    01:00 +28°C° 0 mm 4 mps 736 mmHg 51%
    02:00 +28°C° 0 mm 4 mps 736 mmHg 52%
    03:00 +27°C° 0 mm 4 mps 736 mmHg 54%
    04:00 +27°C° 0 mm 3 mps 736 mmHg 56%
    05:00 +26°C° 0 mm 3 mps 736 mmHg 57%
    06:00 +27°C° 0 mm 3 mps 737 mmHg 57%
    07:00 +27°C° 0 mm 3 mps 737 mmHg 56%
    08:00 +28°C° 0 mm 3 mps 738 mmHg 56%
    09:00 +30°C° 0 mm 4 mps 739 mmHg 50%
    10:00 +33°C° 0 mm 5 mps 739 mmHg 44%
    11:00 +35°C° 0 mm 5 mps 739 mmHg 39%
    12:00 +36°C° 0 mm 5 mps 739 mmHg 36%
    13:00 +36°C° 0 mm 4 mps 739 mmHg 34%
    14:00 +37°C° 0 mm 4 mps 738 mmHg 32%
    15:00 +37°C° 0 mm 3 mps 738 mmHg 34%
    16:00 +36°C° 0 mm 2 mps 738 mmHg 36%
    17:00 +35°C° 0 mm 1 mps 738 mmHg 38%
    18:00 +33°C° 0 mm 1 mps 739 mmHg 42%
    19:00 +31°C° 0 mm 1 mps 740 mmHg 45%
    20:00 +29°C° 0 mm 1 mps 741 mmHg 48%
    21:00 +28°C° 0 mm 2 mps 741 mmHg 51%
    22:00 +28°C° 0 mm 3 mps 742 mmHg 54%
    23:00 +27°C° 0 mm 4 mps 742 mmHg 57%

    28 April, Saturday

    Time Temperature Precipitation Wind Pressure Humidity
    00:00 +26°C° 0 mm 4 mps 742 mmHg 62%
    01:00 +23°C° 0 mm 4 mps 742 mmHg 66%
    02:00 +22°C° 0 mm 4 mps 742 mmHg 71%
    03:00 +21°C° 0 mm 4 mps 742 mmHg 70%
    04:00 +21°C° 0 mm 4 mps 743 mmHg 69%
    05:00 +21°C° 0 mm 4 mps 743 mmHg 68%
    06:00 +21°C° 0 mm 4 mps 743 mmHg 67%
    07:00 +21°C° 0 mm 4 mps 743 mmHg 66%
    08:00 +21°C° 0 mm 4 mps 744 mmHg 66%
    09:00 +23°C° 0 mm 4 mps 744 mmHg 62%
    10:00 +26°C° 0 mm 4 mps 744 mmHg 59%
    11:00 +27°C° 0 mm 3 mps 744 mmHg 56%
    12:00 +28°C° 0 mm 3 mps 743 mmHg 54%
    13:00 +29°C° 0 mm 3 mps 743 mmHg 52%
    14:00 +30°C° 0 mm 3 mps 742 mmHg 51%
    15:00 +30°C° 0 mm 3 mps 742 mmHg 53%
    16:00 +30°C° 0 mm 3 mps 741 mmHg 56%
    17:00 +30°C° 0 mm 3 mps 741 mmHg 59%
    18:00 +28°C° 0 mm 3 mps 741 mmHg 65%
    19:00 +27°C° 0 mm 3 mps 742 mmHg 71%
    20:00 +25°C° 0 mm 3 mps 742 mmHg 77%
    21:00 +25°C° 0 mm 3 mps 742 mmHg 77%
    22:00 +25°C° 0 mm 3 mps 742 mmHg 77%
    23:00 +25°C° 0 mm 4 mps 742 mmHg 77%

    29 April, Sunday

    Time Temperature Precipitation Wind Pressure Humidity
    00:00 +24°C° 0 mm 3 mps 741 mmHg 79%
    01:00 +24°C° 0 mm 3 mps 741 mmHg 82%
    02:00 +22°C° 0 mm 3 mps 740 mmHg 85%
    03:00 +22°C° 0 mm 3 mps 740 mmHg 86%
    04:00 +23°C° 0 mm 2 mps 740 mmHg 88%
    05:00 +23°C° 0 mm 2 mps 739 mmHg 90%
    06:00 +23°C° 0 mm 2 mps 739 mmHg 89%
    07:00 +23°C° 0 mm 2 mps 740 mmHg 88%
    08:00 +24°C° 0 mm 1 mps 740 mmHg 87%
    09:00 +26°C° 0 mm 3 mps 739 mmHg 77%
    10:00 +29°C° 0 mm 4 mps 739 mmHg 67%
    11:00 +33°C° 0 mm 6 mps 739 mmHg 57%
    12:00 +34°C° 0 mm 6 mps 738 mmHg 53%
    13:00 +35°C° 0 mm 7 mps 737 mmHg 48%
    14:00 +36°C° 0 mm 7 mps 736 mmHg 44%
    15:00 +36°C° 0 mm 6 mps 735 mmHg 45%
    16:00 +36°C° 0 mm 4 mps 735 mmHg 45%
    17:00 +36°C° 0 mm 3 mps 735 mmHg 45%
    18:00 +34°C° 0 mm 3 mps 735 mmHg 48%
    19:00 +33°C° 0 mm 3 mps 735 mmHg 52%
    20:00 +30°C° 0 mm 2 mps 736 mmHg 55%
    21:00 +30°C° 0 mm 2 mps 736 mmHg 55%
    22:00 +29°C° 0 mm 2 mps 736 mmHg 56%
    23:00 +29°C° 0 mm 2 mps 736 mmHg 57%
    Show more